Location: Cuiabá
(15.6014°S, 56.0979°W)
Time: 22:03:59
(UTC-04:00)

Hubble Space Telescope - Pass Details

Date: 05 December 2022
Orbit: 529 x 532 km, 28.5° (Epoch: 26 January)

Event Time Altitude Azimuth Distance (km) Brightness Sun altitude
Rises 19:59:30 0° 238° (WSW) 2,679 5.7 -24.9°
Reaches altitude 10° 20:02:50 10° 210° (SSW) 1,789 4.3 -25.6°
Maximum altitude 20:04:52 13° 181° (S) 1,590 3.6 -26.0°
Enters shadow 20:06:30 11° 156° (SSE) 1,723 3.4 -26.3°
